Weather History for Brookhaven, MS

Change the Weather History Date:

Sunday, April 27, 2014

  Actual Average (KMCB) Record (KMCB)
Temperature  
Mean Temperature 78 °F -  
Max Temperature 87 °F 79 °F 92 °F (1987)
Min Temperature 69 °F 55 °F 40 °F (1977)
Cooling Degree Days 13    
Growing Degree Days 28 (Base 50)    
Moisture  
Dew Point 69 °F    
Average Humidity 79    
Maximum Humidity 100    
Minimum Humidity 49    
Precipitation  
Precipitation 0.00 in - - ()
Sea Level Pressure  
Sea Level Pressure 29.81 in    
Wind  
Wind Speed 10 mph (SSE)    
Max Wind Speed 17 mph    
Max Gust Speed 30 mph    
Visibility 8 miles    
Events Rain , Thunderstorm    
Averages and records for this station are not official NWS values.
T = Trace of Precipitation, MM = Missing Value Source: NWS Daily Summary

Daily Weather History Graph

Daily Weather History Graph

Search for Another Location

Airport:

Trip Planner

Search our weather history database for the weather conditions in past years. The results will help you decide how hot, cold, wet, or windy it might be!

Date:

Astronomy

Apr. 27, 2014 Rise Set
Actual Time 6:20 AM CDT 7:38 PM CDT
Civil Twilight 5:54 AM CDT 8:04 PM CDT
Nautical Twilight 5:24 AM CDT 8:35 PM CDT
Astronomical Twilight 4:52 AM CDT 9:06 PM CDT
Moon 5:13 AM CDT (4/27) 6:17 PM CDT (4/27)
Length of Visible Light 14h 09m
Length of Day
13h 18m
Waning Crescent, 3% of the Moon is Illuminated
Apr 27
Waning Crescent
Apr 29
New
May 6
First Quarter
May 14
Full
May 21
Last Quarter

Hourly Weather History & Observations

Time (CDT) Temp. Heat Index Dew Point Humidity Pressure Visibility Wind Dir Wind Speed Gust Speed Precip Events Conditions
12:15 AM 71.6 °F - 68.0 °F 88% 29.92 in 9.0 mi SSE 5.8 mph - N/A   Clear
12:35 AM 69.8 °F - 68.0 °F 94% 29.92 in 9.0 mi SSE 8.1 mph - N/A   Clear
12:55 AM 69.8 °F - 68.0 °F 94% 29.91 in 8.0 mi SSE 8.1 mph - N/A   Clear
1:15 AM 69.8 °F - 68.0 °F 94% 29.90 in 8.0 mi SSE 6.9 mph - N/A   Clear
1:35 AM 69.8 °F - 68.0 °F 94% 29.90 in 9.0 mi SSE 8.1 mph - N/A   Clear
1:55 AM 69.8 °F - 69.8 °F 100% 29.89 in 8.0 mi SSE 9.2 mph - N/A   Clear
2:15 AM 69.8 °F - 69.8 °F 100% 29.89 in 8.0 mi SSE 8.1 mph - N/A   Scattered Clouds
2:35 AM 71.6 °F - 69.8 °F 94% 29.88 in 7.0 mi SSE 8.1 mph - N/A   Overcast
2:55 AM 71.6 °F - 69.8 °F 94% 29.86 in 8.0 mi SE 8.1 mph - N/A   Overcast
3:15 AM 71.6 °F - 69.8 °F 94% 29.86 in 8.0 mi SSE 11.5 mph 17.3 mph N/A   Overcast
3:35 AM 71.6 °F - 69.8 °F 94% 29.86 in 8.0 mi SSE 6.9 mph - N/A   Overcast
4:15 AM 71.6 °F - 69.8 °F 94% 29.85 in 8.0 mi SSE 9.2 mph - N/A   Overcast
4:35 AM 71.6 °F - 69.8 °F 94% 29.85 in 9.0 mi SSE 10.4 mph 16.1 mph N/A   Mostly Cloudy
4:55 AM 71.6 °F - 69.8 °F 94% 29.86 in 8.0 mi South 6.9 mph - N/A   Scattered Clouds
5:15 AM 71.6 °F - 69.8 °F 94% 29.86 in 8.0 mi SSE 9.2 mph - N/A   Scattered Clouds
5:35 AM 71.6 °F - 69.8 °F 94% 29.86 in 5.0 mi South 5.8 mph - N/A Rain , Thunderstorm Light Rain
5:55 AM 71.6 °F - 69.8 °F 94% 29.85 in 7.0 mi SSE 5.8 mph - N/A   Scattered Clouds
6:15 AM 71.6 °F - 69.8 °F 94% 29.86 in 6.0 mi South 6.9 mph - N/A Thunderstorm Mostly Cloudy
6:35 AM 71.6 °F - 69.8 °F 94% 29.87 in 5.0 mi South 8.1 mph - N/A   Mostly Cloudy
6:55 AM 71.6 °F - 69.8 °F 94% 29.87 in 6.0 mi SSE 10.4 mph 16.1 mph N/A Thunderstorm Mostly Cloudy
7:15 AM 71.6 °F - 69.8 °F 94% 29.85 in 7.0 mi SSE 10.4 mph - N/A Thunderstorm Mostly Cloudy
7:35 AM 71.6 °F - 69.8 °F 94% 29.86 in 5.0 mi SSE 8.1 mph - N/A Thunderstorm Mostly Cloudy
7:55 AM 73.4 °F - 69.8 °F 88% 29.87 in 8.0 mi SSE 10.4 mph - N/A Thunderstorm Scattered Clouds
8:15 AM 73.4 °F - 69.8 °F 88% 29.87 in 6.0 mi SSE 10.4 mph - N/A   Scattered Clouds
8:35 AM 73.4 °F - 69.8 °F 88% 29.87 in 9.0 mi SSE 11.5 mph - N/A   Mostly Cloudy
8:55 AM 73.4 °F - 69.8 °F 88% 29.87 in 7.0 mi South 12.7 mph 19.6 mph N/A   Mostly Cloudy
9:15 AM 73.4 °F - 69.8 °F 88% 29.87 in 8.0 mi South 12.7 mph 19.6 mph N/A   Mostly Cloudy
9:35 AM 75.2 °F - 69.8 °F 83% 29.86 in 9.0 mi South 13.8 mph 18.4 mph N/A   Mostly Cloudy
9:55 AM 77.0 °F - 69.8 °F 78% 29.84 in 8.0 mi SSE 13.8 mph 19.6 mph N/A   Scattered Clouds
10:15 AM 78.8 °F - 69.8 °F 74% 29.84 in 8.0 mi SSE 13.8 mph 21.9 mph N/A   Partly Cloudy
10:35 AM 78.8 °F - 68.0 °F 69% 29.84 in 9.0 mi South 10.4 mph 23.0 mph N/A   Scattered Clouds
10:55 AM 78.8 °F - 68.0 °F 69% 29.84 in 9.0 mi SSE 15.0 mph 21.9 mph N/A   Mostly Cloudy
11:15 AM 80.6 °F 82.7 °F 66.2 °F 61% 29.84 in 9.0 mi SSE 16.1 mph 28.8 mph N/A   Scattered Clouds
11:35 AM 80.6 °F 83.2 °F 68.0 °F 65% 29.82 in 9.0 mi SE 16.1 mph 23.0 mph N/A   Mostly Cloudy
11:55 AM 82.4 °F 85.4 °F 68.0 °F 62% 29.82 in 7.0 mi SE 16.1 mph 24.2 mph N/A   Scattered Clouds
12:15 PM 82.4 °F 85.4 °F 68.0 °F 62% 29.80 in 9.0 mi SE 12.7 mph 24.2 mph N/A   Partly Cloudy
12:35 PM 82.4 °F 84.6 °F 66.2 °F 58% 29.80 in 8.0 mi SE 16.1 mph 26.5 mph N/A   Clear
12:55 PM 82.4 °F 84.6 °F 66.2 °F 58% 29.79 in 7.0 mi SSE 11.5 mph 24.2 mph N/A   Clear
1:15 PM 84.2 °F 86.6 °F 66.2 °F 55% 29.78 in 8.0 mi SSE 15.0 mph 24.2 mph N/A   Clear
1:35 PM 84.2 °F 87.3 °F 68.0 °F 58% 29.78 in 9.0 mi SSE 13.8 mph 21.9 mph N/A   Partly Cloudy
1:55 PM 84.2 °F 86.6 °F 66.2 °F 55% 29.77 in 8.0 mi SSE 13.8 mph 24.2 mph N/A   Partly Cloudy
2:15 PM 84.2 °F 86.6 °F 66.2 °F 55% 29.77 in 7.0 mi SSE 16.1 mph 28.8 mph N/A   Partly Cloudy
2:35 PM 84.2 °F 86.6 °F 66.2 °F 55% 29.77 in 8.0 mi SSE 17.3 mph 24.2 mph N/A   Partly Cloudy
3:15 PM 86.0 °F 88.2 °F 66.2 °F 51% 29.75 in 8.0 mi SSE 15.0 mph 23.0 mph N/A   Clear
3:35 PM 87.8 °F 90.4 °F 66.2 °F 49% 29.74 in 9.0 mi SSE 16.1 mph 21.9 mph N/A   Partly Cloudy
3:55 PM 86.0 °F 89.4 °F 68.0 °F 55% 29.73 in 7.0 mi SSE 15.0 mph 21.9 mph N/A   Partly Cloudy
4:15 PM 84.2 °F 88.4 °F 69.8 °F 62% 29.73 in 9.0 mi SSE 15.0 mph 26.5 mph N/A   Partly Cloudy
4:35 PM 86.0 °F 90.4 °F 69.8 °F 58% 29.72 in 8.0 mi SSE 13.8 mph 27.6 mph N/A   Partly Cloudy
5:15 PM 84.2 °F 88.4 °F 69.8 °F 62% 29.72 in 7.0 mi SSE 17.3 mph 26.5 mph N/A   Scattered Clouds
5:35 PM 82.4 °F 87.2 °F 71.6 °F 70% 29.74 in 6.0 mi SSE 15.0 mph 29.9 mph N/A   Haze
5:55 PM 80.6 °F 84.6 °F 71.6 °F 74% 29.72 in 10.0 mi SE 16.1 mph 25.3 mph N/A   Scattered Clouds
6:15 PM 80.6 °F 84.6 °F 71.6 °F 74% 29.73 in 9.0 mi SSE 16.1 mph 24.2 mph N/A   Clear
6:35 PM 78.8 °F - 71.6 °F 78% 29.71 in 8.0 mi SSE 16.1 mph 23.0 mph N/A   Clear
6:55 PM 78.8 °F - 71.6 °F 78% 29.71 in 10.0 mi SSE 16.1 mph 24.2 mph N/A   Clear
7:15 PM 78.8 °F - 71.6 °F 78% 29.71 in 7.0 mi SSE 13.8 mph 24.2 mph N/A   Clear
7:35 PM 78.8 °F - 71.6 °F 78% 29.71 in 7.0 mi SSE 13.8 mph 26.5 mph N/A   Clear
7:55 PM 77.0 °F - 71.6 °F 83% 29.71 in 6.0 mi SSE 8.1 mph 20.7 mph N/A   Haze
8:15 PM 77.0 °F - 71.6 °F 83% 29.73 in 10.0 mi SSE 10.4 mph 18.4 mph N/A   Mostly Cloudy
8:35 PM 77.0 °F - 69.8 °F 78% 29.73 in 10.0 mi SSE 13.8 mph 21.9 mph N/A   Mostly Cloudy
8:55 PM 75.2 °F - 69.8 °F 83% 29.73 in 10.0 mi SSE 15.0 mph 20.7 mph N/A   Mostly Cloudy
9:15 PM 75.2 °F - 69.8 °F 83% 29.73 in 9.0 mi SSE 13.8 mph 24.2 mph N/A   Scattered Clouds
9:35 PM 75.2 °F - 69.8 °F 83% 29.74 in 8.0 mi SSE 16.1 mph 24.2 mph N/A   Scattered Clouds
9:55 PM 75.2 °F - 69.8 °F 83% 29.74 in 10.0 mi SSE 15.0 mph 24.2 mph N/A   Scattered Clouds
10:15 PM 75.2 °F - 69.8 °F 83% 29.74 in 9.0 mi SSE 15.0 mph 23.0 mph N/A   Mostly Cloudy
10:35 PM 75.2 °F - 69.8 °F 83% 29.74 in 9.0 mi SSE 15.0 mph 23.0 mph N/A   Mostly Cloudy
10:55 PM 75.2 °F - 69.8 °F 83% 29.74 in 10.0 mi SSE 9.2 mph 26.5 mph N/A   Mostly Cloudy
11:35 PM 75.2 °F - 69.8 °F 83% 29.74 in 9.0 mi SSE 16.1 mph 25.3 mph N/A   Mostly Cloudy
11:55 PM 73.4 °F - 69.8 °F 88% 29.75 in 9.0 mi South 13.8 mph 26.5 mph N/A   Mostly Cloudy